Midland, MI

5:51 AM EDT on May 25, 2017 (GMT -0400)
Barstow

Weather History for KIKW - March, 2013

Change the Weather History Date:

Thursday, March 21, 2013

  Actual Average (KMBS) Record (KMBS)
Temperature  
Mean Temperature 25 °F -  
Max Temperature 32 °F 41 °F 87 °F (2012)
Min Temperature 18 °F 25 °F 15 °F (2002)
Degree Days  
Heating Degree Days 40    
Moisture  
Dew Point 19 °F    
Average Humidity 72    
Maximum Humidity 85    
Minimum Humidity 60    
Precipitation  
Precipitation 0.00 in - - ()
Sea Level Pressure  
Sea Level Pressure 29.85 in    
Wind  
Wind Speed 9 mph (WNW)    
Max Wind Speed 18 mph    
Max Gust Speed 23 mph    
Visibility 10 miles    
Events Snow    
Averages and records for this station are not official NWS values.
T = Trace of Precipitation, MM = Missing Value Source: NWS Daily Summary

Daily Weather History Graph

Daily Weather History Graph

Search for Another Location

Airport or City:

Trip Planner

Search our weather history database for the weather conditions in past years. The results will help you decide how hot, cold, wet, or windy it might be!

Date:

Astronomy

Mar. 21, 2013 Rise Set
Actual Time 7:37 AM EDT 7:50 PM EDT
Civil Twilight 7:09 AM EDT 8:19 PM EDT
Nautical Twilight 6:35 AM EDT 8:53 PM EDT
Astronomical Twilight 6:01 AM EDT 9:27 PM EDT
Moon 2:10 PM EDT (3/21) 4:08 AM EDT (3/21)
Length of Visible Light 13h 10m
Length of Day
12h 12m
Waxing Gibbous, 68% of the Moon is Illuminated
Mar 21
Waxing Gibbous
Mar 27
Full
Apr 3
Last Quarter
Apr 10
New
Apr 18
First Quarter

Hourly Weather History & Observations

Time (EDT) Temp. Windchill Dew Point Humidity Pressure Visibility Wind Dir Wind Speed Gust Speed Precip Events Conditions
12:15 AM 18.3 °F 8.2 °F 12.2 °F 77% 29.88 in 10.0 mi West 8.1 mph - N/A   Mostly Cloudy
12:34 AM 18.3 °F 9.1 °F 12.4 °F 78% 29.87 in 10.0 mi West 6.9 mph - N/A   Mostly Cloudy
12:54 AM 18.5 °F 8.4 °F 12.7 °F 78% 29.87 in 10.0 mi WSW 8.1 mph - N/A   Overcast
1:13 AM 18.5 °F 9.3 °F 12.9 °F 79% 29.86 in 10.0 mi WSW 6.9 mph - N/A   Overcast
1:34 AM 18.7 °F 8.6 °F 13.1 °F 79% 29.86 in 10.0 mi WSW 8.1 mph - N/A   Overcast
2:14 AM 19.4 °F 10.4 °F 14.4 °F 81% 29.84 in 10.0 mi WSW 6.9 mph - N/A   Overcast
2:34 AM 19.9 °F 8.6 °F 14.9 °F 81% 29.84 in 10.0 mi West 10.4 mph - N/A   Overcast
2:53 AM 20.1 °F 10.3 °F 14.9 °F 80% 29.84 in 10.0 mi West 8.1 mph - N/A   Overcast
3:14 AM 20.3 °F 10.6 °F 15.3 °F 81% 29.83 in 10.0 mi West 8.1 mph - N/A   Overcast
3:34 AM 20.3 °F 9.0 °F 15.1 °F 80% 29.82 in 10.0 mi WSW 10.4 mph - N/A   Overcast
3:54 AM 20.3 °F 9.8 °F 14.9 °F 80% 29.82 in 10.0 mi West 9.2 mph - N/A   Overcast
4:14 AM 19.8 °F 8.3 °F 14.7 °F 81% 29.82 in 10.0 mi West 10.4 mph - N/A   Mostly Cloudy
4:34 AM 19.4 °F 8.6 °F 14.7 °F 82% 29.81 in 10.0 mi West 9.2 mph - N/A   Mostly Cloudy
4:54 AM 19.4 °F 9.5 °F 14.9 °F 83% 29.81 in 10.0 mi West 8.1 mph - N/A   Overcast
5:14 AM 19.4 °F 9.5 °F 14.9 °F 83% 29.81 in 10.0 mi West 8.1 mph - N/A   Overcast
5:34 AM 19.4 °F 10.4 °F 15.3 °F 84% 29.81 in 2.5 mi West 6.9 mph - N/A Snow Light Snow
5:53 AM 19.8 °F 10.8 °F 15.4 °F 83% 29.81 in 10.0 mi West 6.9 mph - N/A Snow Light Snow
6:14 AM 19.9 °F 12.1 °F 15.6 °F 83% 29.81 in 10.0 mi West 5.8 mph - N/A   Overcast
6:34 AM 20.1 °F 12.3 °F 16.0 °F 84% 29.82 in 10.0 mi West 5.8 mph - N/A Snow Light Snow
6:53 AM 20.3 °F 12.5 °F 16.3 °F 85% 29.81 in 10.0 mi West 5.8 mph - N/A Snow Light Snow
7:14 AM 21.2 °F 12.6 °F 17.1 °F 84% 29.81 in 10.0 mi West 6.9 mph - N/A   Overcast
7:34 AM 22.3 °F 12.2 °F 18.3 °F 85% 29.81 in 10.0 mi WNW 9.2 mph - N/A   Overcast
7:54 AM 23.4 °F 16.2 °F 18.9 °F 83% 29.82 in 10.0 mi West 5.8 mph - N/A   Overcast
8:11 AM 23.9 °F 16.8 °F 19.4 °F 83% 29.82 in 10.0 mi West 5.8 mph - N/A   Overcast
8:34 AM 24.8 °F 16.9 °F 19.9 °F 82% 29.82 in 10.0 mi West 6.9 mph - N/A   Overcast
8:54 AM 25.7 °F 16.4 °F 20.1 °F 79% 29.82 in 10.0 mi West 9.2 mph - N/A   Overcast
9:14 AM 26.1 °F 16.8 °F 20.5 °F 79% 29.82 in 10.0 mi West 9.2 mph - N/A   Overcast
9:34 AM 26.4 °F 17.3 °F 21.0 °F 80% 29.82 in 10.0 mi West 9.2 mph - N/A   Overcast
9:54 AM 27.1 °F 19.7 °F 21.2 °F 78% 29.83 in 10.0 mi WNW 6.9 mph - N/A   Overcast
10:14 AM 28.2 °F 20.2 °F 21.9 °F 77% 29.83 in 10.0 mi WNW 8.1 mph - N/A   Overcast
10:34 AM 29.1 °F 19.4 °F 22.1 °F 75% 29.83 in 10.0 mi WNW 11.5 mph 17.3 mph N/A   Overcast
10:54 AM 29.3 °F 22.3 °F 22.3 °F 75% 29.84 in 10.0 mi WNW 6.9 mph - N/A   Overcast
11:14 AM 29.7 °F 21.3 °F 21.4 °F 71% 29.84 in 10.0 mi NW 9.2 mph 20.7 mph N/A   Overcast
11:33 AM 30.9 °F 20.7 °F 20.5 °F 65% 29.83 in 10.0 mi NW 13.8 mph 19.6 mph N/A   Overcast
11:54 AM 30.9 °F 22.8 °F 19.9 °F 64% 29.83 in 10.0 mi NW 9.2 mph - N/A   Overcast
12:14 PM 31.1 °F 22.4 °F 19.9 °F 63% 29.83 in 10.0 mi WNW 10.4 mph 19.6 mph N/A   Overcast
12:34 PM 31.1 °F 23.1 °F 20.3 °F 64% 29.83 in 10.0 mi NW 9.2 mph - N/A   Overcast
12:54 PM 31.3 °F 22.1 °F 20.1 °F 63% 29.83 in 10.0 mi WNW 11.5 mph 18.4 mph N/A   Overcast
1:14 PM 31.1 °F 20.9 °F 20.7 °F 65% 29.84 in 10.0 mi NW 13.8 mph - N/A   Overcast
1:34 PM 31.5 °F 22.9 °F 20.7 °F 64% 29.84 in 10.0 mi WNW 10.4 mph 17.3 mph N/A   Overcast
1:53 PM 31.6 °F 22.6 °F 20.3 °F 63% 29.84 in 10.0 mi WNW 11.5 mph 21.9 mph N/A   Overcast
2:14 PM 32.0 °F 23.0 °F 20.3 °F 62% 29.84 in 10.0 mi WNW 11.5 mph - N/A   Overcast
2:34 PM 32.0 °F 23.0 °F 19.8 °F 61% 29.84 in 10.0 mi NW 11.5 mph 19.6 mph N/A   Overcast
2:54 PM 32.0 °F 22.5 °F 19.8 °F 61% 29.84 in 10.0 mi WNW 12.7 mph 19.6 mph N/A   Overcast
3:14 PM 32.0 °F 20.5 °F 19.6 °F 60% 29.83 in 10.0 mi WNW 18.4 mph 23.0 mph N/A   Overcast
3:34 PM 32.0 °F 22.5 °F 19.6 °F 60% 29.84 in 10.0 mi NW 12.7 mph 20.7 mph N/A   Overcast
3:54 PM 32.2 °F 21.4 °F 20.8 °F 63% 29.84 in 10.0 mi WNW 16.1 mph 20.7 mph N/A   Overcast
4:13 PM 32.0 °F 22.1 °F 21.0 °F 64% 29.84 in 10.0 mi NW 13.8 mph 21.9 mph N/A Snow Light Snow
4:34 PM 32.0 °F 21.6 °F 21.0 °F 64% 29.84 in 10.0 mi WNW 15.0 mph 23.0 mph N/A   Overcast
4:54 PM 32.0 °F 23.6 °F 21.2 °F 64% 29.85 in 10.0 mi WNW 10.4 mph 19.6 mph N/A   Overcast
5:14 PM 31.6 °F 20.7 °F 21.0 °F 65% 29.85 in 10.0 mi WNW 16.1 mph 21.9 mph N/A   Overcast
5:34 PM 31.5 °F 22.3 °F 21.4 °F 66% 29.85 in 10.0 mi WNW 11.5 mph 18.4 mph N/A Snow Light Snow
5:54 PM 31.3 °F 21.1 °F 21.4 °F 67% 29.86 in 10.0 mi NW 13.8 mph - N/A Snow Light Snow
6:14 PM 31.1 °F 21.4 °F 20.3 °F 64% 29.85 in 10.0 mi WNW 12.7 mph 21.9 mph N/A   Overcast
6:34 PM 31.1 °F 21.9 °F 20.5 °F 65% 29.86 in 10.0 mi WNW 11.5 mph 23.0 mph N/A   Overcast
6:54 PM 31.1 °F 21.9 °F 19.9 °F 63% 29.86 in 10.0 mi NW 11.5 mph 20.7 mph N/A   Overcast
7:14 PM 30.9 °F 19.8 °F 19.8 °F 63% 29.86 in 10.0 mi WNW 16.1 mph 19.6 mph N/A   Overcast
7:34 PM 30.7 °F 20.4 °F 19.4 °F 63% 29.87 in 10.0 mi WNW 13.8 mph 20.7 mph N/A   Overcast
7:54 PM 30.2 °F 23.4 °F 19.9 °F 66% 29.87 in 10.0 mi WNW 6.9 mph - N/A   Overcast
8:14 PM 30.0 °F 21.7 °F 20.1 °F 67% 29.87 in 10.0 mi NW 9.2 mph 19.6 mph N/A   Overcast
8:34 PM 30.0 °F 20.0 °F 19.8 °F 66% 29.88 in 10.0 mi NW 12.7 mph 19.6 mph N/A   Overcast
8:54 PM 29.7 °F 19.6 °F 19.8 °F 67% 29.88 in 10.0 mi NW 12.7 mph 18.4 mph N/A   Overcast
9:14 PM 29.3 °F 22.3 °F 20.3 °F 69% 29.89 in 10.0 mi NW 6.9 mph - N/A   Overcast
9:34 PM 28.9 °F 20.4 °F 21.2 °F 73% 29.89 in 10.0 mi NNW 9.2 mph - N/A   Overcast
9:54 PM 28.9 °F 20.4 °F 20.3 °F 70% 29.89 in 10.0 mi WNW 9.2 mph 18.4 mph N/A   Overcast
10:14 PM 28.6 °F 19.3 °F 19.9 °F 70% 29.90 in 10.0 mi WNW 10.4 mph - N/A   Overcast
10:34 PM 28.4 °F 18.5 °F 19.9 °F 71% 29.90 in 10.0 mi WNW 11.5 mph 21.9 mph N/A   Overcast
10:54 PM 28.4 °F 19.1 °F 19.4 °F 69% 29.91 in 10.0 mi WNW 10.4 mph 16.1 mph N/A   Overcast
11:14 PM 28.2 °F 17.7 °F 19.4 °F 70% 29.90 in 10.0 mi WNW 12.7 mph 18.4 mph N/A   Overcast
11:34 PM 28.0 °F 17.5 °F 19.2 °F 70% 29.90 in 10.0 mi WNW 12.7 mph 20.7 mph N/A   Overcast
11:54 PM 27.7 °F 18.2 °F 18.7 °F 69% 29.90 in 10.0 mi WNW 10.4 mph 16.1 mph N/A   Overcast